Location: Newark
(55.5030°N, 22.7200°E)
Time: 17:40:26
(UTC+00:00)

Transit 2A Rocket - Visible Passes

Search period start: 06 June 2020 00:00
Search period end: 16 June 2020 00:00
Orbit: 585 x 918 km, 66.7° (Epoch: 05 June)

Date Brightness Start Highest point End Pass type
(mag) Time Alt. Az. Time Alt. Az. Time Alt. Az.
06 Jun 6.5 21:23:48 10° WSW 21:29:02 44° NNW 21:34:42 10° NE visible
06 Jun 7.5 23:08:09 10° WNW 23:13:02 28° N 23:18:12 10° NE visible
07 Jun 7.3 00:51:53 10° NW 00:57:15 34° NNE 01:02:47 10° E visible
07 Jun 6.0 20:40:54 10° WSW 20:46:13 56° NW 20:52:03 10° NE visible
07 Jun 7.4 22:25:04 10° WNW 22:30:01 30° NNW 22:35:16 10° NE visible
08 Jun 7.5 00:09:07 10° NW 00:14:17 30° NNE 00:19:38 10° ENE visible
08 Jun 5.5 19:58:09 10° SW 20:03:31 75° NW 20:09:24 10° NE visible
08 Jun 7.2 21:41:59 10° W 21:47:02 33° NNW 21:52:26 10° NE visible
08 Jun 7.6 23:26:15 10° NW 23:31:15 28° N 23:36:29 10° ENE visible
09 Jun 6.9 20:58:55 10° W 21:04:06 39° NNW 21:09:42 10° NE visible
09 Jun 7.6 22:43:18 10° WNW 22:48:13 28° N 22:53:24 10° ENE visible
10 Jun 7.1 00:26:50 10° NW 00:32:22 38° NNE 00:38:03 10° E visible
10 Jun 6.4 20:15:56 10° WSW 20:21:15 48° NNW 20:27:01 10° NE visible
10 Jun 7.6 22:00:15 10° WNW 22:05:11 29° N 22:10:24 10° NE visible
10 Jun 7.4 23:44:07 10° NW 23:49:26 33° NNE 23:54:55 10° E visible
11 Jun 7.4 21:17:10 10° WNW 21:22:11 31° NNW 21:27:30 10° NE visible
11 Jun 7.5 23:01:18 10° NW 23:06:26 30° N 23:11:45 10° ENE visible
12 Jun 6.4 00:44:25 10° NW 00:50:18 53° NE 00:56:19 10° ESE visible
12 Jun 7.2 20:34:04 10° W 20:39:12 35° NNW 20:44:42 10° NE visible
12 Jun 7.6 22:18:25 10° NW 22:23:24 28° N 22:28:37 10° ENE visible
13 Jun 6.8 00:01:46 10° NW 00:07:28 42° NNE 00:13:18 10° E visible
13 Jun 7.6 21:35:25 10° WNW 21:40:22 28° N 21:45:34 10° NE visible
13 Jun 7.2 23:19:05 10° NW 23:24:34 36° NNE 23:30:11 10° E visible
14 Jun 7.5 20:52:20 10° WNW 20:57:21 29° N 21:02:36 10° NE visible
14 Jun 7.4 22:36:20 10° NW 22:41:36 32° NNE 22:47:02 10° ENE visible
15 Jun 6.0 00:19:18 10° NW 00:25:19 62° NE 00:31:25 10° ESE visible
15 Jun 7.4 20:09:15 10° W 20:14:20 32° NNW 20:19:45 10° NE visible
15 Jun 7.5 21:53:29 10° NW 21:58:35 29° N 22:03:52 10° ENE visible
15 Jun 6.5 23:36:41 10° NW 23:42:32 49° NNE 23:48:29 10° ESE visible
